Wind_Speed
18 19 20 25 29 31 33 34 35 37 37 38 40 40 41 43 47 48 42 36 37 40 40 39 40 49 49 45 55 72 79 73 67 66 63 62 65 62 60 57 54 54 54 48
20 19 21 24 28 32 34 35 37 38 39 39 41 43 44 44 47 50 46 38 37 40 42 41 38 36 39 51 48 56 74 80 74 69 69 66 67 65 65 60 52 55 53 52
24 25 25 26 27 31 33 36 38 41 41 42 43 44 46 48 48 50 51 43 38 41 44 44 44 39 32 32 47 54 62 76 82 74 72 71 69 70 69 67 65 65 59 55
30 30 29 28 29 29 32 34 38 41 44 45 47 47 48 49 50 52 54 51 44 42 44 44 43 40 34 29 29 33 51 62 78 84 75 75 73 72 72 72 74 55 51 52
30 30 31 31 33 34 33 33 36 41 46 47 48 49 52 51 52 54 57 56 51 46 46 43 39 34 32 26 29 30 32 44 64 79 83 78 77 75 75 75 73 70 60 62
28 31 32 33 35 39 39 37 36 41 46 48 50 51 52 54 54 54 55 58 58 53 50 47 39 33 28 26 25 27 25 30 42 64 80 81 81 78 77 78 74 70 69 62
25 29 32 35 37 39 43 44 41 41 43 48 51 52 51 52 54 55 56 58 62 60 56 53 44 34 29 23 22 24 24 26 31 41 68 82 81 82 80 80 79 74 72 68
24 27 31 34 38 41 43 46 47 44 43 44 48 50 51 51 53 55 56 59 63 65 62 60 46 36 27 22 20 20 21 24 28 31 44 73 81 83 83 80 80 79 73 69
26 27 29 32 35 39 43 46 47 47 45 44 46 50 51 52 53 55 57 59 63 66 64 64 50 41 34 25 19 20 20 19 23 29 33 53 77 83 85 83 81 81 76 76
26 28 29 31 34 37 40 43 46 47 49 49 45 49 51 53 53 55 57 59 62 65 65 65 56 45 40 36 25 17 16 18 18 23 28 40 59 75 85 86 83 82 80 77
23 26 30 32 33 36 39 41 44 46 46 48 51 49 49 53 55 56 56 58 59 62 64 64 62 50 44 46 38 24 10 10 12 16 23 29 42 60 76 85 86 84 82 80
23 25 28 31 33 34 37 40 41 44 45 46 48 50 49 51 54 55 56 56 57 58 61 63 64 56 44 43 47 44 28 13 4 8 12 16 30 44 61 80 87 86 84 81
23 26 27 29 33 34 35 37 39 42 43 44 47 47 50 50 52 54 54 55 56 57 58 61 62 59 48 38 39 37 36 33 27 19 11 3 10 30 47 65 85 87 86 84
25 26 29 29 31 34 35 37 37 39 42 41 45 46 46 48 50 52 53 54 54 54 56 57 60 59 51 43 34 32 30 29 28 24 21 15 5 14 34 52 69 87 87 85
23 23 26 29 29 31 33 36 36 36 39 41 42 46 46 47 48 50 52 53 53 52 53 53 54 56 53 42 38 34 29 24 20 19 19 18 13 6 12 37 56 72 87 87
24 24 24 26 26 28 30 34 35 35 36 39 40 42 45 46 47 49 51 53 53 53 52 52 52 52 53 48 36 31 29 28 27 24 21 18 13 10 6 11 38 56 72 87
26 26 25 25 25 26 28 31 32 33 35 37 38 40 41 43 45 46 48 51 52 52 52 51 50 50 48 49 46 37 27 26 24 24 21 17 15 13 10 5 11 38 56 70
28 28 27 24 26 25 28 31 31 31 33 34 35 36 40 42 43 44 46 49 51 52 51 48 48 48 47 46 46 46 41 27 20 19 18 18 16 16 16 14 9 7 33 55
28 28 29 26 23 21 25 28 29 29 30 33 34 35 37 39 40 41 43 45 48 49 50 49 47 46 45 44 43 41 40 38 31 20 15 14 14 15 14 14 14 12 6 24
29 26 27 25 24 24 25 28 26 28 30 32 33 35 36 36 37 38 40 42 43 47 48 48 47 45 44 43 41 38 35 34 35 33 27 17 12 13 11 12 13 13 13 9
26 25 25 24 23 19 22 25 24 27 29 32 34 35 34 35 36 37 39 40 40 44 46 46 46 45 43 41 39 39 38 36 33 31 32 29 22 11 8 8 10 11 11 13
27 26 24 22 23 19 21 21 25 27 28 29 31 33 34 33 34 35 37 38 38 40 43 44 43 43 43 43 41 39 37 36 34 32 30 27 26 23 15 8 9 10 11 10
27 26 27 22 21 21 20 24 25 25 27 29 30 31 34 35 35 35 37 37 37 37 38 41 42 41 41 41 41 40 38 36 35 33 30 28 26 23 22 20 13 10 12 12
25 28 28 19 18 21 21 23 25 24 26 29 31 32 35 37 37 37 37 35 33 35 34 36 38 38 40 40 40 40 39 38 36 34 33 32 29 26 23 21 21 18 12 11
24 31 31 18 20 20 22 24 26 26 28 30 32 34 35 36 34 36 37 34 31 31 32 32 35 37 37 38 38 38 39 38 36 34 33 32 31 29 26 24 21 19 17 15
27 32 26 17 21 23 25 27 28 28 28 30 31 33 34 36 36 36 36 34 31 29 30 29 31 34 36 37 38 37 36 37 37 35 35 34 31 30 27 24 21 19 17 14
Wind_Direction
9 9 358 8 10 8 5 1 357 357 355 355 354 356 354 354 354 352 349 334 331 331 328 316 305 280 266 260 258 247 232 225 223 219 217 215 217 221 218 221 224 226 225 223
3 355 0 3 3 4 5 3 360 0 358 358 358 358 358 358 358 355 354 344 335 335 332 326 312 305 280 260 253 252 244 227 221 222 217 215 214 215 217 214 208 223 225 228
11 8 5 5 2 0 2 3 3 1 2 0 1 359 1 360 359 357 356 353 343 338 335 330 322 314 309 281 260 252 248 240 224 218 220 216 214 212 216 212 215 221 222 226
17 15 13 9 7 2 360 1 5 4 5 3 3 3 4 2 1 359 357 357 352 345 340 333 322 313 312 300 285 269 252 245 235 220 219 218 214 213 213 214 210 209 211 220
18 17 17 14 12 10 5 1 6 8 7 5 6 4 3 3 2 0 359 357 355 352 346 340 327 318 305 301 287 283 269 250 239 230 217 219 216 213 213 215 217 218 215 219
12 16 18 15 12 13 11 8 4 10 7 9 9 4 3 2 2 3 0 358 357 356 353 349 340 327 307 304 295 287 277 260 244 233 225 215 218 214 212 214 217 217 216 221
7 10 13 13 13 11 10 9 8 9 13 8 9 8 4 2 2 3 2 0 359 359 358 357 352 340 327 309 300 290 283 271 255 234 225 220 215 216 214 213 214 216 216 219
2 3 5 5 7 9 9 9 9 7 10 11 10 9 7 4 3 4 4 3 2 2 1 0 1 356 339 320 303 295 282 269 259 246 221 221 214 216 215 214 213 215 216 215
1 358 358 358 359 3 5 9 7 5 10 14 9 9 7 8 5 5 5 4 4 5 4 3 6 6 359 345 316 293 281 272 257 246 226 215 218 212 215 215 215 215 216 215
355 358 356 355 355 357 0 3 8 5 6 8 13 9 8 8 8 7 7 7 7 8 8 7 8 12 13 4 351 324 288 265 253 239 228 212 215 214 213 215 216 216 216 217
346 351 355 353 354 354 357 358 3 6 6 6 8 9 7 8 9 8 9 9 9 9 11 12 11 15 21 22 18 7 326 257 236 224 215 208 212 215 213 214 215 217 217 218
339 344 349 352 352 353 354 355 358 4 5 6 7 6 7 8 9 10 9 10 10 11 12 15 16 17 21 26 29 35 37 48 74 158 170 197 216 213 211 212 215 216 217 218
337 339 342 346 354 354 352 353 355 1 4 3 7 5 6 7 8 8 11 10 12 12 13 15 19 21 24 27 31 37 44 54 65 73 74 40 228 221 211 209 214 217 217 218
338 337 339 341 347 351 351 351 355 358 0 5 4 9 9 8 8 8 9 11 13 13 14 15 19 22 26 32 35 40 48 56 60 66 74 71 60 229 222 211 210 216 218 219
333 334 338 335 338 346 348 351 353 356 358 2 7 6 10 10 10 8 8 10 12 15 16 16 18 23 27 30 39 47 48 46 42 41 41 41 42 48 232 220 213 213 218 221
325 331 334 334 331 339 345 351 351 352 356 1 4 5 8 11 11 10 10 10 10 14 16 17 19 21 25 30 33 39 49 54 50 46 45 42 38 33 38 232 223 216 216 220
319 323 327 333 329 334 342 350 351 350 355 359 2 4 7 11 11 10 10 11 11 12 15 17 19 20 22 25 30 33 35 44 47 44 42 39 35 30 29 19 238 225 219 219
314 318 322 327 329 331 340 346 350 351 353 357 359 2 6 8 9 10 10 11 12 11 13 15 19 19 19 22 25 29 30 30 32 40 40 39 31 28 28 23 5 257 230 225
308 314 317 322 326 325 332 344 347 351 351 355 358 1 5 7 7 9 10 11 12 11 10 12 16 19 19 21 23 24 27 30 29 21 26 34 28 28 28 16 16 1 295 238
305 309 313 318 320 326 333 341 346 352 353 356 359 1 2 4 5 7 9 10 13 11 9 8 11 15 19 19 19 19 23 28 31 32 28 20 17 16 28 20 8 3 358 327
303 306 309 314 311 316 325 338 342 347 354 353 357 359 359 0 4 5 5 7 10 14 11 8 8 11 14 15 17 15 16 20 24 28 30 30 27 14 1 2 358 359 353 350
302 302 305 310 306 311 319 337 340 343 346 346 349 355 357 358 0 3 3 4 7 13 13 10 7 7 8 9 12 13 13 14 15 18 21 25 29 28 17 332 314 323 333 343
299 296 299 303 306 305 315 328 333 333 334 337 340 348 353 355 357 358 359 2 5 10 12 11 9 7 6 6 7 8 7 9 10 9 12 12 13 20 28 25 1 308 300 307
300 294 296 303 294 300 309 319 320 320 323 330 336 341 348 350 353 355 355 357 0 4 7 9 8 6 6 4 3 2 3 4 5 4 2 2 4 5 9 17 25 21 354 304
293 289 298 311 287 294 303 311 314 314 321 323 332 338 342 343 346 349 351 350 353 358 0 3 5 2 1 360 359 358 356 356 357 358 359 357 357 359 358 359 1 9 19 14
284 289 311 308 288 293 300 305 313 314 316 317 324 329 334 338 340 342 344 343 343 349 349 353 356 358 357 357 352 350 350 347 348 349 352 353 350 349 351 350 350 349 349 359
Height
5804 5800 5798 5792 5786 5781 5775 5769 5762 5756 5749 5741 5732 5723 5712 5700 5687 5674 5662 5651 5642 5631 5622 5613 5605 5599 5601 5602 5603 5609 5623 5637 5647 5655 5668 5680 5690 5700 5711 5721 5727 5734 5741 5748
5805 5802 5797 5790 5784 5779 5774 5767 5760 5753 5745 5738 5729 5718 5707 5695 5683 5669 5657 5646 5635 5625 5614 5604 5596 5589 5584 5584 5587 5590 5600 5615 5630 5641 5651 5663 5674 5685 5696 5706 5713 5722 5730 5737
5804 5799 5794 5790 5784 5778 5772 5766 5758 5750 5742 5733 5725 5715 5702 5689 5677 5666 5654 5642 5630 5618 5606 5595 5585 5578 5573 5570 5571 5576 5581 5592 5609 5624 5636 5647 5658 5671 5681 5693 5702 5709 5719 5727
5803 5798 5793 5789 5784 5778 5771 5764 5757 5748 5739 5729 5719 5710 5698 5686 5673 5661 5649 5635 5625 5613 5601 5588 5577 5569 5564 5560 5560 5561 5565 5571 5587 5605 5618 5631 5643 5655 5666 5677 5687 5697 5707 5717
5805 5799 5793 5788 5783 5776 5770 5762 5754 5745 5735 5725 5715 5704 5692 5681 5669 5656 5641 5629 5620 5609 5597 5584 5571 5562 5557 5554 5551 5551 5551 5554 5564 5581 5600 5614 5628 5640 5651 5661 5672 5685 5697 5704
5805 5800 5795 5789 5782 5775 5767 5760 5752 5743 5732 5723 5712 5700 5688 5675 5664 5653 5642 5630 5619 5607 5595 5580 5566 5556 5549 5547 5544 5543 5542 5543 5546 5560 5579 5597 5611 5625 5638 5649 5659 5670 5684 5693
5805 5800 5794 5789 5783 5775 5766 5758 5749 5742 5731 5720 5709 5699 5688 5675 5664 5653 5642 5630 5617 5604 5590 5576 5561 5550 5543 5540 5538 5536 5536 5534 5535 5543 5559 5577 5595 5610 5623 5635 5647 5658 5670 5682
5804 5800 5794 5788 5782 5774 5766 5757 5748 5740 5731 5723 5712 5702 5692 5679 5667 5654 5642 5630 5617 5600 5584 5571 5558 5547 5539 5535 5532 5530 5528 5528 5528 5531 5542 5558 5578 5593 5609 5622 5634 5645 5656 5668
5804 5800 5794 5788 5781 5775 5766 5758 5750 5740 5732 5724 5714 5705 5694 5681 5668 5655 5641 5628 5615 5599 5583 5570 5556 5546 5537 5531 5526 5522 5520 5520 5520 5523 5531 5542 5559 5578 5593 5607 5620 5631 5643 5655
5803 5799 5794 5788 5782 5775 5767 5759 5751 5742 5731 5721 5715 5703 5692 5680 5668 5655 5642 5630 5617 5602 5588 5573 5560 5549 5537 5527 5519 5513 5511 5511 5513 5517 5524 5534 5544 5562 5577 5592 5607 5619 5631 5642
5802 5798 5794 5787 5781 5774 5766 5759 5751 5743 5734 5723 5711 5704 5693 5682 5670 5658 5645 5633 5620 5608 5594 5579 5566 5552 5541 5530 5517 5508 5504 5504 5508 5512 5520 5531 5537 5547 5563 5579 5593 5606 5619 5631
5800 5796 5791 5787 5780 5773 5766 5758 5751 5744 5735 5725 5716 5706 5694 5683 5672 5661 5648 5636 5623 5612 5599 5586 5572 5558 5545 5537 5527 5516 5508 5507 5509 5515 5524 5531 5534 5539 5551 5567 5580 5593 5606 5620
5798 5794 5790 5785 5780 5773 5765 5759 5751 5744 5736 5726 5717 5708 5695 5685 5675 5663 5652 5640 5628 5616 5605 5592 5579 5565 5553 5544 5538 5533 5526 5522 5523 5526 5530 5533 5534 5537 5542 5554 5568 5581 5594 5607
5796 5791 5787 5783 5778 5772 5764 5757 5751 5743 5735 5728 5719 5710 5700 5688 5678 5667 5655 5643 5632 5622 5611 5599 5587 5575 5563 5554 5548 5543 5539 5537 5536 5535 5535 5536 5537 5538 5541 5547 5556 5569 5583 5595
5795 5791 5786 5780 5776 5770 5764 5756 5750 5743 5736 5727 5721 5710 5701 5690 5680 5670 5659 5648 5637 5627 5618 5607 5596 5584 5573 5564 5557 5551 5547 5544 5543 5542 5542 5541 5540 5539 5540 5545 5551 5560 5572 5584
5791 5788 5784 5779 5774 5769 5763 5756 5749 5742 5736 5728 5720 5712 5703 5693 5683 5674 5664 5653 5643 5633 5624 5614 5605 5594 5583 5573 5565 5561 5556 5552 5550 5548 5547 5546 5545 5543 5542 5543 5547 5554 5563 5572
5787 5784 5781 5777 5772 5766 5762 5755 5748 5742 5735 5728 5720 5713 5704 5695 5685 5676 5667 5657 5647 5638 5629 5619 5610 5601 5591 5583 5574 5566 5562 5558 5555 5553 5551 5550 5549 5547 5546 5544 5545 5548 5555 5562
5782 5779 5776 5773 5767 5763 5758 5752 5747 5741 5734 5728 5720 5713 5705 5697 5688 5679 5670 5661 5652 5643 5634 5624 5615 5607 5599 5591 5584 5576 5569 5563 5560 5557 5555 5553 5552 5550 5549 5548 5546 5546 5549 5555
5777 5773 5770 5767 5765 5762 5756 5751 5745 5740 5735 5727 5720 5713 5706 5698 5689 5682 5673 5663 5655 5647 5638 5629 5621 5613 5605 5597 5590 5583 5576 5569 5563 5560 5558 5556 5554 5553 5551 5549 5548 5547 5546 5547
5771 5768 5766 5762 5759 5755 5751 5747 5743 5739 5733 5726 5720 5713 5706 5698 5691 5683 5674 5666 5657 5650 5643 5635 5626 5617 5610 5602 5595 5587 5579 5574 5569 5563 5559 5557 5556 5555 5553 5551 5549 5548 5546 5544
5765 5763 5760 5756 5754 5753 5750 5745 5741 5737 5734 5725 5719 5712 5705 5698 5692 5684 5676 5669 5661 5652 5645 5637 5630 5622 5614 5606 5600 5593 5587 5582 5575 5569 5564 5559 5555 5553 5553 5552 5550 5548 5546 5544
5758 5755 5754 5752 5748 5748 5745 5742 5738 5734 5728 5723 5717 5711 5704 5698 5691 5685 5678 5670 5663 5655 5647 5640 5633 5625 5618 5611 5604 5597 5591 5585 5579 5574 5569 5563 5557 5553 5550 5549 5549 5547 5546 5544
5752 5750 5748 5747 5744 5741 5740 5736 5733 5730 5725 5720 5715 5709 5704 5697 5691 5685 5678 5671 5664 5656 5649 5643 5636 5628 5620 5613 5606 5600 5594 5588 5582 5577 5570 5565 5561 5556 5551 5547 5545 5544 5543 5542
5747 5743 5742 5742 5740 5736 5734 5733 5730 5726 5721 5717 5712 5707 5702 5696 5690 5683 5677 5670 5663 5656 5650 5643 5637 5630 5623 5615 5608 5602 5596 5590 5584 5578 5573 5568 5563 5559 5554 5550 5545 5542 5540 5538
5741 5736 5735 5737 5734 5732 5729 5727 5724 5721 5718 5713 5709 5704 5698 5692 5686 5680 5674 5667 5661 5654 5648 5642 5636 5630 5623 5616 5610 5603 5597 5590 5584 5579 5573 5569 5564 5560 5557 5553 5548 5543 5540 5537
5733 5731 5729 5730 5727 5725 5723 5721 5719 5716 5712 5708 5703 5698 5692 5687 5681 5676 5670 5664 5658 5652 5645 5638 5633 5628 5623 5617 5610 5604 5597 5590 5584 5579 5574 5570 5564 5559 5555 5551 5548 5545 5542 5537